HVDC transfer

From www.emi.ea.govt.nz provided by the Electricity Authority (New Zealand)
Run at: 20240503155810

Parameters
Date range,29 Oct 2020 - 29 Oct 2020
Time scale,Trading period
Show,Average flow (MW)

Period start,Period end,Trading period,Direction,Energy transfer (GWh),Peak flow (MW),Average flow (MW)
29/10/2020 00:00:00,29/10/2020 00:30:00,1,Northward at Haywards,0.210,420,420
29/10/2020 00:30:00,29/10/2020 01:00:00,2,Northward at Haywards,0.201,402,402
29/10/2020 01:00:00,29/10/2020 01:30:00,3,Northward at Haywards,0.203,406,406
29/10/2020 01:30:00,29/10/2020 02:00:00,4,Northward at Haywards,0.214,428,428
29/10/2020 02:00:00,29/10/2020 02:30:00,5,Northward at Haywards,0.229,458,458
29/10/2020 02:30:00,29/10/2020 03:00:00,6,Northward at Haywards,0.239,478,478
29/10/2020 03:00:00,29/10/2020 03:30:00,7,Northward at Haywards,0.243,485,485
29/10/2020 03:30:00,29/10/2020 04:00:00,8,Northward at Haywards,0.247,494,494
29/10/2020 04:00:00,29/10/2020 04:30:00,9,Northward at Haywards,0.252,504,504
29/10/2020 04:30:00,29/10/2020 05:00:00,10,Northward at Haywards,0.255,509,509
29/10/2020 05:00:00,29/10/2020 05:30:00,11,Northward at Haywards,0.270,540,540
29/10/2020 05:30:00,29/10/2020 06:00:00,12,Northward at Haywards,0.270,539,539
29/10/2020 06:00:00,29/10/2020 06:30:00,13,Northward at Haywards,0.301,601,601
29/10/2020 06:30:00,29/10/2020 07:00:00,14,Northward at Haywards,0.309,617,617
29/10/2020 07:00:00,29/10/2020 07:30:00,15,Northward at Haywards,0.325,650,650
29/10/2020 07:30:00,29/10/2020 08:00:00,16,Northward at Haywards,0.356,712,712
29/10/2020 08:00:00,29/10/2020 08:30:00,17,Northward at Haywards,0.387,773,773
29/10/2020 08:30:00,29/10/2020 09:00:00,18,Northward at Haywards,0.378,756,756
29/10/2020 09:00:00,29/10/2020 09:30:00,19,Northward at Haywards,0.390,779,779
29/10/2020 09:30:00,29/10/2020 10:00:00,20,Northward at Haywards,0.387,774,774
29/10/2020 10:00:00,29/10/2020 10:30:00,21,Northward at Haywards,0.383,766,766
29/10/2020 10:30:00,29/10/2020 11:00:00,22,Northward at Haywards,0.377,753,753
29/10/2020 11:00:00,29/10/2020 11:30:00,23,Northward at Haywards,0.376,751,751
29/10/2020 11:30:00,29/10/2020 12:00:00,24,Northward at Haywards,0.380,760,760
29/10/2020 12:00:00,29/10/2020 12:30:00,25,Northward at Haywards,0.379,757,757
29/10/2020 12:30:00,29/10/2020 13:00:00,26,Northward at Haywards,0.374,748,748
29/10/2020 13:00:00,29/10/2020 13:30:00,27,Northward at Haywards,0.358,715,715
29/10/2020 13:30:00,29/10/2020 14:00:00,28,Northward at Haywards,0.357,713,713
29/10/2020 14:00:00,29/10/2020 14:30:00,29,Northward at Haywards,0.353,706,706
29/10/2020 14:30:00,29/10/2020 15:00:00,30,Northward at Haywards,0.357,713,713
29/10/2020 15:00:00,29/10/2020 15:30:00,31,Northward at Haywards,0.368,735,735
29/10/2020 15:30:00,29/10/2020 16:00:00,32,Northward at Haywards,0.384,767,767
29/10/2020 16:00:00,29/10/2020 16:30:00,33,Northward at Haywards,0.389,777,777
29/10/2020 16:30:00,29/10/2020 17:00:00,34,Northward at Haywards,0.389,777,777
29/10/2020 17:00:00,29/10/2020 17:30:00,35,Northward at Haywards,0.355,710,710
29/10/2020 17:30:00,29/10/2020 18:00:00,36,Northward at Haywards,0.345,689,689
29/10/2020 18:00:00,29/10/2020 18:30:00,37,Northward at Haywards,0.332,664,664
29/10/2020 18:30:00,29/10/2020 19:00:00,38,Northward at Haywards,0.333,666,666
29/10/2020 19:00:00,29/10/2020 19:30:00,39,Northward at Haywards,0.320,640,640
29/10/2020 19:30:00,29/10/2020 20:00:00,40,Northward at Haywards,0.320,639,639
29/10/2020 20:00:00,29/10/2020 20:30:00,41,Northward at Haywards,0.342,684,684
29/10/2020 20:30:00,29/10/2020 21:00:00,42,Northward at Haywards,0.310,620,620
29/10/2020 21:00:00,29/10/2020 21:30:00,43,Northward at Haywards,0.278,555,555
29/10/2020 21:30:00,29/10/2020 22:00:00,44,Northward at Haywards,0.249,497,497
29/10/2020 22:00:00,29/10/2020 22:30:00,45,Northward at Haywards,0.256,511,511
29/10/2020 22:30:00,29/10/2020 23:00:00,46,Northward at Haywards,0.232,464,464
29/10/2020 23:00:00,29/10/2020 23:30:00,47,Northward at Haywards,0.215,430,430
29/10/2020 23:30:00,30/10/2020 00:00:00,48,Northward at Haywards,0.211,421,421
